Location: Laura�t
(43.9341°N, 0.2497°E)
Time: 22:40:51
(UTC+00:00)

Resurs 01 Rocket - Pass Details

Date: 03 March 2021
Orbit: 635 x 643 km, 98.0° (Epoch: 17 April)

Event Time Altitude Azimuth Distance (km) Brightness Sun altitude
Exits shadow 19:12:41 12° 43° (NE) 1,893 3.7 -15.6°
Drops below altitude 10° 19:13:33 10° 32° (NNE) 2,031 3.9 -15.8°
Sets 19:16:50 0° 6° (N) 2,947 5.1 -16.4°
